Regional Weather Roundup
Issued by NWS

Home | Current Version | Previous Version | Graphics & Text | Print | Product List | Glossary On
Versions: 1 2 3 4 5 6 7 8 9 10 11 12 13 14 15 16 17 18 19 20 21 22 23 24 25 26 27 28 29 30 31 32 33 34 35 36 37 38 39 40 41 42 43 44 45 46 47 48 49 50
039
ASUS43 KDTX 081410
RWRMI
MICHIGAN HOURLY REGIONAL WEATHER ROUNDUP
NATIONAL WEATHER SERVICE DETROIT/PONTIAC MI
900 AM EST MON FEB 08 2016

NOTE: "FAIR" INDICATES FEW OR NO CLOUDS BELOW 12,000 FEET WITH NO
SIGNIFICANT WEATHER AND/OR OBSTRUCTION TO VISIBILITY.

MIZ047>049-052>055-059>063-066>070-074>076-081>083-081500-
SOUTHEAST LOWER MICHIGAN

CITY           SKY/WX    TMP DP  RH WIND       PRES   REMARKS
ADRIAN         CLOUDY    33  29  85 NW6       29.63S WCI  28
ALMA           SUNNY     28  28 100 CALM      29.62S FOG
ANN ARBOR      CLOUDY    30  29  96 W3        29.62S
BAD AXE        CLOUDY    36  33  88 CALM      29.61S
CARO           PTSUNNY   32  30  93 CALM      29.61R
DETROIT CITY   CLOUDY    39  31  72 W5        29.62R
DETROIT        CLOUDY    36  30  79 W3        29.63R
FLINT          PTSUNNY   34  28  79 SW5       29.62R WCI  30
GROSSE ILE     PTSUNNY   37  34  87 CALM      29.61S
HILLSDALE      MOSUNNY   30  29  94 CALM      29.61S
HOWELL         CLOUDY    33  31  93 SW5       29.61S WCI  28

CITY           SKY/WX    TMP DP  RH WIND       PRES   REMARKS
JACKSON        CLOUDY    32  28  85 SW6       29.61S WCI  26
LAMBERTVILLE   MOSUNNY   33  31  90 W5        29.63S WCI  29
LANSING        PTSUNNY   29  26  89 CALM      29.62S
LAPEER         CLOUDY    34  31  89 CALM      29.61S
MASON          PTSUNNY   32  29  90 CALM      29.62S
MONROE         CLOUDY    34  31  91 W5        29.62S WCI  30
MT. CLEMENS    CLOUDY    37  37  98 CALM      29.60S FOG
PONTIAC        CLOUDY    34  29  82 W5        29.60R WCI  30
PORT HOPE        N/A     34  31  88 CALM      29.60S
PORT HURON     DRIZZLE   36  36 100 CALM      29.62S
TRI CITIES     CLOUDY    34  30  85 W5        29.62R WCI  30
MIDLAND        FAIR      30  29  96 CALM      29.61S FOG
TROY           CLOUDY    38  30  72 NW5       29.63S WCI  35
SAGINAW HB     CLOUDY    34  32  93 SW6       29.61S WCI  29
$$
MIZ043>046-050>051-056>058-064>065-071>073-077>080-081500-
SOUTHWEST LOWER MICHIGAN

CITY           SKY/WX    TMP DP  RH WIND       PRES   REMARKS
BATTLE CREEK   PTSUNNY   27  25  92 SW3       29.62S
BENTON HARBOR  CLOUDY    32  29  88 S5        29.62S WCI  27
BIG RAPIDS     CLOUDY    30  30 100 S3        29.59S
COLDWATER      MOSUNNY   30  28  93 SW3       29.62S
FREMONT        CLOUDY    31  31 100 SE3       29.60R
HOLLAND        CLOUDY    33  30  88 CALM      29.62R
GRAND RAPIDS   PTSUNNY   31  29  92 SE7       29.62R WCI  24
IONIA          CLOUDY    31  30  97 SW6       29.62R WCI  25
KALAMAZOO      CLOUDY    30  26  85 S3        29.63R
LUDINGTON      PTCLDY    30  30  97 CALM      29.59S
MARSHALL       SUNNY     30  28  94 SW3       29.62S
MOUNT PLEASANT MOSUNNY   29  27  92 CALM      29.60S FOG
MUSKEGON       CLOUDY    33  29  85 CALM      29.61S
SOUTH HAVEN    CLOUDY    33  31  92 S5        29.62R WCI  29
$$
MIZ016>042-081500-
NORTHERN LOWER MICHIGAN

CITY           SKY/WX    TMP DP  RH WIND       PRES   REMARKS
ALPENA         CLOUDY    28  26  92 W3        29.60S
BEAVER ISLAND  PTCLDY    32  32  99 S3        29.58S FOG
BELLAIRE       CLEAR     24  23  96 CALM      29.60S
CADILLAC       MOSUNNY   29  28  96 S7        29.56S WCI  22
CHARLEVOIX     CLEAR     29  29 100 SE3       29.62S FOG
FRANKFORT      CLOUDY    32  30  92 CALM      29.58S
GAYLORD        FOG       28  26  92 SW5       29.57S VSB<1/4 WCI  23
GRAYLING       FOG       27  26  97 CALM      29.58F VSB<1/4
HARBOR SPRINGS CLEAR     27  26  96 CALM      29.59S FOG
HOUGHTON LAKE  FOG       23  22  96 CALM      29.58S VSB 3/4
MANISTEE       MOCLDY    28  27  93 E3        29.59S
OSCODA         CLOUDY    31  30  98 CALM      29.59F
PELLSTON       FOG       23  21  92 CALM      29.60R VSB<1/4
ROGERS CITY    CLOUDY    30  28  91 CALM      29.61S
TRAVERSE CITY  MOCLDY    32  29  88 CALM      29.58R
$$
MIZ007>008-015-081500-
EASTERN UPPER MICHIGAN

CITY           SKY/WX    TMP DP  RH WIND       PRES   REMARKS
KINROSS        CLOUDY    32  32 100 E3        29.59S
MACKINAC ISLAN PTCLDY    31  31 100 S3        29.59S FOG
NEWBERRY       CLOUDY    32  32  99 CALM      29.57S FOG
S. S. MARIE    FOG       34  32  92 E7        29.60S VSB 1   WCI  28
MUNISING         N/A     31  28  89 NW22G28   29.59R WCI  18
$$
MIZ004>006-011>014-085-081500-
CENTRAL UPPER MICHIGAN

CITY           SKY/WX    TMP DP  RH WIND       PRES   REMARKS
MANISTIQUE     CLOUDY    34  32  93 NW6       29.57S WCI  29
ESCANABA       CLOUDY    34  30  86 N5        29.59R WCI  30
MENOMINEE      CLOUDY    32  27  80 NW3       29.58R
SAWYER-GWINN   LGT SNOW  23  21  93 N15       29.59R WCI  10
$$
MIZ001>003-009>011-084-081500-
WESTERN UPPER MICHIGAN

CITY           SKY/WX    TMP DP  RH WIND       PRES   REMARKS
IRON MOUNTAIN  LGT SNOW  29  25  85 N13       29.58R VSB 3/4 WCI  19
HOUGHTON       LGT SNOW  16  11  80 N14       29.66S WCI   2
COPPER HARBOR    N/A     22  19  89 N24       29.67R WCI   5
IRONWOOD       CLOUDY    19  18  93 NW12G18   29.69R WCI   7
$$

ABBREVIATIONS USED IN REMARKS
   TC - TEMPERATURE IN CELSIUS
  WCI - WIND CHILL INDEX
   HX - HEAT INDEX
  VSB - VISIBILITY





USA.gov is the U.S. government's official web portal to all federal, state and local government web resources and services.